Printer-friendly version

IAU Minor Planet Center

Minor Planet Center

MPEC 2001-K06: 2001 JU2

The following Minor Planet Electronic Circular may be linked-to from your own Web pages, but must not otherwise be redistributed electronically.


Read MPEC 2001-K05 Read MPEC 2001-K07


M.P.E.C. 2001-K06                                Issued 2001 May 17, 16:54 UT

     The Minor Planet Electronic Circulars contain information on unusual
         minor planets and routine data on comets.  They are published
   on behalf of Commission 20 of the International Astronomical Union by the
          Minor Planet Center, Smithsonian Astrophysical Observatory,
                          Cambridge, MA 02138, U.S.A.

             Prepared using the Tamkin Foundation Computer Network

                              MPC@CFA.HARVARD.EDU
          URL http://cfa-www.harvard.edu/iau/mpc.html  ISSN 1523-6714

                                   2001 JU2

Observations:
     K01J02U* C2001 05 15.22653 15 01 31.26 -06 50 46.5          19.0 R      699
     K01J02U  C2001 05 15.25455 15 01 28.19 -06 50 39.1                      699
     K01J02U  C2001 05 15.28267 15 01 25.21 -06 50 31.4                      699
     K01J02U  C2001 05 15.31086 15 01 22.17 -06 50 23.2                      699
     K01J02U  C2001 05 16.18189 14 59 54.76 -06 46 28.5          18.9 R      649
     K01J02U  C2001 05 16.19523 14 59 53.18 -06 46 26.6          19.2 R      649
     K01J02U  C2001 05 16.20652 14 59 51.98 -06 46 22.1          19.2 R      649
     K01J02U  C2001 05 16.36654 14 59 35.10 -06 45 37.7          19.7 V      926
     K01J02U  C2001 05 16.36845 14 59 34.89 -06 45 38.1          20.2 V      926
     K01J02U  C2001 05 16.37037 14 59 34.66 -06 45 36.7          19.8 V      926
     K01J02U  C2001 05 16.87189 14 58 44.71 -06 43 32.0          17.5 R      046
     K01J02U  C2001 05 16.87497 14 58 44.40 -06 43 29.9                      046
     K01J02U  C2001 05 16.87737 14 58 44.11 -06 43 29.5                      046
     K01J02U  C2001 05 17.16862 14 58 14.57 -06 42 14.5          18.6 R      649
     K01J02U  C2001 05 17.18415 14 58 12.95 -06 42 10.3          18.7 R      649
     K01J02U  C2001 05 17.19396 14 58 12.01 -06 42 08.4          19.8 R      918
     K01J02U  C2001 05 17.19808 14 58 11.49 -06 42 09.1                      918
     K01J02U  C2001 05 17.20062 14 58 11.51 -06 42 04.2          20.1 V      926
     K01J02U  C2001 05 17.20399 14 58 10.96 -06 42 07.3                      918
     K01J02U  C2001 05 17.20490 14 58 11.10 -06 42 03.2                      926
     K01J02U  C2001 05 17.20846 14 58 10.71 -06 42 02.5          20.1 V      926
     K01J02U  C2001 05 17.21076 14 58 10.15 -06 42 03.4          19.0 R      649
     K01J02U  C2001 05 17.21720 14 58 09.36 -06 42 01.7          19.7 R      649

Observer details:
046 Klet.  Observers M. Tichy, M. Kocer.  0.57-m f/5.2 reflector + CCD.
649 Powell Observatory, Louisburg.  Observers K. Smalley, D. Trentman.
    Measurer K. Smalley.  0.75-m Newtonian + CCD.
699 Lowell Observatory-LONEOS.  Observer B. A. Skiff.  0.59-m LONEOS Schmidt
    + CCD.
918 Badlands Observatory, Quinn.  Observer R. Dyvig.  0.66-m f/4.8 reflector
    + CCD.
926 Tenagra II Observatory.  Observer M. Schwartz.  Measurer P. R. Holvorcem.
    0.5-m f/10 Ritchey-Chretien + CCD.

Orbital elements:
2001 JU2
Epoch 2001 May 11.0 TT = JDT 2452040.5                  Spahr
M 291.79339              (2000.0)            P               Q
n   0.52166164     Peri.  227.99638     +0.85481255     +0.51416032
a   1.5283053      Node   100.94973     -0.45246035     +0.80473725
e   0.2735930      Incl.    4.10301     -0.25411638     +0.29671052
P   1.89           H   19.8           G   0.15
From 23 observations 2001 May 15-17.

Ephemeris:
2001 JU2                 a,e,i = 1.53, 0.27, 4                   q = 1.1102
Date    TT    R. A. (2000) Decl.     Delta      r     Elong.  Phase     V
2001 05 11    15 08.47   -07 11.9    0.479    1.483   169.3     7.2    19.6
2001 05 21    14 51.75   -06 27.9    0.450    1.444   160.1    13.8    19.7
2001 05 31    14 35.88   -06 13.4    0.438    1.404   147.9    22.5    19.8
2001 06 10    14 23.81   -06 36.9    0.437    1.365   136.2    31.0    20.0
2001 06 20    14 17.26   -07 39.3    0.445    1.326   125.7    38.5    20.2
2001 06 30    14 16.91   -09 17.3    0.456    1.288   116.8    44.8    20.4
2001 07 10    14 22.60   -11 24.7    0.469    1.252   109.3    50.0    20.5
2001 07 20    14 33.85   -13 55.0    0.480    1.219   103.2    54.3    20.6
2001 07 30    14 50.37   -16 42.3    0.489    1.188    98.3    57.7    20.7
2001 08 09    15 11.89   -19 39.5    0.495    1.162    94.4    60.4    20.8
2001 08 19    15 38.38   -22 38.7    0.499    1.140    91.5    62.5    20.8
2001 08 29    16 10.06   -25 29.8    0.501    1.124    89.6    63.9    20.8
2001 09 08    16 46.94   -27 59.7    0.503    1.114    88.5    64.7    20.8
2001 09 18    17 28.89   -29 52.3    0.507    1.110    88.1    64.8    20.8
2001 09 28    18 15.21   -30 51.0    0.513    1.113    88.4    64.2    20.9
2001 10 08    19 04.30   -30 41.8    0.526    1.122    89.2    62.9    20.9
2001 10 18    19 54.00   -29 18.9    0.545    1.138    90.2    61.2    20.9
2001 10 28    20 42.23   -26 47.3    0.574    1.158    91.3    59.0    21.0
2001 11 07    21 27.34   -23 22.0    0.612    1.184    92.1    56.8    21.2
2001 11 17    22 08.68   -19 21.7    0.661    1.214    92.6    54.5    21.3
2001 11 27    22 46.35   -15 04.3    0.721    1.247    92.5    52.2    21.5
2001 12 07    23 20.73   -10 44.2    0.791    1.283    91.8    50.1    21.7
2001 12 17    23 52.44   -06 30.9    0.870    1.320    90.6    48.2    21.9

Timothy B. Spahr             (C) Copyright 2001 MPC           M.P.E.C. 2001-K06

Read MPEC 2001-K05 Read MPEC 2001-K07


Our Web policy. Index to the CBAT/MPC/ICQ pages.


Valid HTML 4.01!